Regional Weather Roundup
Issued by NWS State College, PA

Home | Current Version | Previous Version | Text Only | Print | Product List | Glossary Off
Versions: 1 2 3 4 5 6 7 8 9 10 11 12 13 14 15 16 17 18 19 20 21 22 23 24 25 26 27 28 29 30 31 32 33 34 35 36 37 38 39 40 41 42 43 44 45 46 47 48 49 50

000
ASUS41 KCTP 032103
RWRCTP

REGIONAL WEATHER ROUNDUP
NATIONAL WEATHER SERVICE STATE COLLEGE PA
500 PM EDT FRI JUL 03 2015

Note: "fair" indicates few or no clouds below 12,000 feet with no
significant weather and/or obstructions to visibility.

* = STATION THAT DOES NOT REPORT PRECIPITATION /E.G. RAIN...SNOW...ETC/
    THUNDER OR FOG.

PAZ002>004-007>009-013>016-020>023-029>032-032200-
WESTERN PENNSYLVANIA

CITY           SKY/WX    TMP DP  RH WIND       PRES   REMARKS
ERIE           MOSUNNY   70  48  45 NE14      29.94F
MEADVILLE      PTSUNNY   75  54  47 S6        29.93F
FRANKLIN*      PTSUNNY   75  55  50 CALM      29.95F
NEW CASTLE     FAIR      78  57  48 CALM      29.92F
BEAVER COUNTY  PTSUNNY   77  55  47 CALM      29.92F
BUTLER*        CLOUDY    77  57  50 SE5       29.93F
PITTSBURGH INT CLOUDY    78  57  48 VRB3      29.90F
PITTSBURGH     CLOUDY    76  55  48 SE6       29.90F
INDIANA*       MOSUNNY   75  63  64 S12       29.97S
LATROBE        MOSUNNY   75  63  64 SE6       29.93F
WASHINGTON CO* NOT AVBL
$$

PAZ004>006-010>012-017>019-024>028-033>037-041-042-045-046-049>053-032200-
CENTRAL PENNSYLVANIA

CITY           SKY/WX    TMP DP  RH WIND       PRES   REMARKS
BRADFORD       MOSUNNY   73  53  49 S6        29.97F
DUBOIS         PTSUNNY   76  56  49 VRB7      29.95F
CLEARFIELD     PTSUNNY   76  58  53 CALM      29.96F
JOHNSTOWN      CLOUDY    70  58  65 SE6       29.98F
ALTOONA        CLOUDY    74  60  61 S6        29.97F
STATE COLLEGE  MOSUNNY   75  61  60 SW6       29.96F
WILLIAMSPORT   MOSUNNY   79  58  48 SW6       29.93F
SELINSGROVE    MOSUNNY   79  61  53 S7        29.95F
FT INDIANTOWN  PTSUNNY   77  61  57 S6        29.96S
CAPITAL CITY   CLOUDY    77  63  61 SE7       29.95S
HARRISBURG     CLOUDY    78  64  61 SE6       29.94F
YORK           CLOUDY    77  63  61 MISG      29.96S
$$

PAZ038>040-043-044-047-048-054-055-060>062-067>071-032200-
EASTERN PENNSYLVANIA

CITY           SKY/WX    TMP DP  RH WIND       PRES   REMARKS
SCRANTON       MOSUNNY   80  54  40 VRB3      29.96F
MOUNT POCONO   MOSUNNY   75  55  49 SE6       30.01F
ALLENTOWN      PTSUNNY   80  57  45 S6        29.96S
QUAKERTOWN*    CLOUDY    77  61  57 SW5       29.98F
READING        CLOUDY    78  61  55 S8        29.95S
LANCASTER      CLOUDY    77  62  59 S6        29.95F
COATESVILLE    CLOUDY    77  64  65 CALM      29.99S
POTTSTOWN      CLOUDY    79  61  53 SW7       29.98S
BLUE BELL      CLOUDY    79  63  57 CALM      29.96S
DOYLESTOWN     CLOUDY    77  57  50 W5        29.96F
WILLOW GROVE   NOT AVBL
NORTH PHILA    PTSUNNY   80  57  45 S5        29.97F
PHILADELPHIA   PTSUNNY   82  61  48 S6        29.95F
$$


USA.gov is the U.S. government's official web portal to all federal, state and local government web resources and services.